Location: Narrabri
(30.3170°S, 149.7830°E)
Time: 23:15:42
(UTC+10:00)

N. Korean satellite - Visible Passes

Search period start: 24 April 2017 00:00
Search period end: 04 May 2017 00:00
Orbit: 462 x 518 km, 97.2° (Epoch: 22 April)

Date Brightness Start Highest point End Pass type
(mag) Time Alt. Az. Time Alt. Az. Time Alt. Az.
24 Apr 8.1 18:12:08 11° ESE 18:14:11 16° E 18:16:24 10° NE visible
24 Apr 9.2 19:46:38 17° SW 19:47:38 19° WSW 19:50:11 10° WNW visible
25 Apr 7.8 19:24:03 32° SW 19:25:03 40° WSW 19:28:20 10° NW visible
26 Apr 8.9 05:52:27 10° NE 05:55:44 29° ESE 05:59:03 10° SSE visible
26 Apr 6.3 19:01:24 45° SSE 19:02:24 87° ENE 19:05:52 10° N visible
27 Apr 9.8 05:31:01 10° ENE 05:33:12 15° ESE 05:35:22 10° SE visible
27 Apr 7.0 18:38:43 30° ESE 18:39:39 36° E 18:42:53 10° NNE visible
28 Apr 8.0 18:15:59 16° ESE 18:16:50 17° E 18:19:13 10° NE visible
28 Apr 9.3 19:50:29 17° WSW 19:50:29 17° WSW 19:52:38 10° WNW visible
29 Apr 8.0 19:27:43 36° WSW 19:27:43 36° WSW 19:30:51 10° NW visible
30 Apr 8.7 05:55:00 10° NE 05:58:22 31° ESE 06:01:43 10° SSE visible
30 Apr 6.4 19:04:56 84° WSW 19:04:57 85° WSW 19:08:25 10° NNW visible
01 May 9.7 05:33:25 10° ENE 05:35:46 16° ESE 05:38:06 10° SSE visible
01 May 6.8 18:42:06 40° E 18:42:11 40° E 18:45:28 10° N visible
02 May 7.9 18:19:16 19° E 18:19:21 19° E 18:21:52 10° NE visible
02 May 9.6 19:53:44 14° W 19:53:44 14° W 19:54:55 10° WNW visible
03 May 8.4 19:30:52 29° WNW 19:30:52 29° WNW 19:33:13 10° NW visible
